Year,Month,Day,Hour,Minute,Value (Times are PST for temperature in C)
2013,07,25,00,00,15.40
2013,07,25,00,01,15.40
2013,07,25,00,02,15.40
2013,07,25,00,03,15.40
2013,07,25,00,04,15.40
2013,07,25,00,05,15.30
2013,07,25,00,06,15.30
2013,07,25,00,07,15.30
2013,07,25,00,08,15.30
2013,07,25,00,09,15.30
2013,07,25,00,10,15.30
2013,07,25,00,11,15.20
2013,07,25,00,12,15.20
2013,07,25,00,13,15.20
2013,07,25,00,14,15.20
2013,07,25,00,15,15.20
2013,07,25,00,16,15.20
2013,07,25,00,17,15.10
2013,07,25,00,18,15.10
2013,07,25,00,19,15.10
2013,07,25,00,20,15.10
2013,07,25,00,21,15.00
2013,07,25,00,22,15.00
2013,07,25,00,23,15.00
2013,07,25,00,24,15.00
2013,07,25,00,25,14.90
2013,07,25,00,26,14.90
2013,07,25,00,27,14.90
2013,07,25,00,28,14.90
2013,07,25,00,29,14.80
2013,07,25,00,30,14.80
2013,07,25,00,31,14.80
2013,07,25,00,32,14.80
2013,07,25,00,33,14.80
2013,07,25,00,34,14.80
2013,07,25,00,35,14.80
2013,07,25,00,36,14.70
2013,07,25,00,37,14.70
2013,07,25,00,38,14.70
2013,07,25,00,39,14.70
2013,07,25,00,40,14.70
2013,07,25,00,41,14.70
2013,07,25,00,42,14.70
2013,07,25,00,43,14.60
2013,07,25,00,44,14.60
2013,07,25,00,45,14.60
2013,07,25,00,46,14.60
2013,07,25,00,47,14.50
2013,07,25,00,48,14.50
2013,07,25,00,49,14.40
2013,07,25,00,50,14.40
2013,07,25,00,51,14.40
2013,07,25,00,52,14.40
2013,07,25,00,53,14.30
2013,07,25,00,54,14.30
2013,07,25,00,55,14.30
2013,07,25,00,56,14.30
2013,07,25,00,57,14.30
2013,07,25,00,58,14.20
2013,07,25,00,59,14.20
2013,07,25,01,00,14.20
2013,07,25,01,01,14.20
2013,07,25,01,02,14.20
2013,07,25,01,03,14.10
2013,07,25,01,04,14.10
2013,07,25,01,05,14.10
2013,07,25,01,06,14.10
2013,07,25,01,07,14.10
2013,07,25,01,08,14.10
2013,07,25,01,09,14.00
2013,07,25,01,10,14.00
2013,07,25,01,11,14.00
2013,07,25,01,12,14.00
2013,07,25,01,13,13.90
2013,07,25,01,14,13.90
2013,07,25,01,15,13.90
2013,07,25,01,16,13.90
2013,07,25,01,17,13.90
2013,07,25,01,18,13.80
2013,07,25,01,19,13.80
2013,07,25,01,20,13.80
2013,07,25,01,21,13.80
2013,07,25,01,22,13.80
2013,07,25,01,23,13.80
2013,07,25,01,24,13.70
2013,07,25,01,25,13.70
2013,07,25,01,26,13.70
2013,07,25,01,27,13.70
2013,07,25,01,28,13.70
2013,07,25,01,29,13.70
2013,07,25,01,30,13.70
2013,07,25,01,31,13.70
2013,07,25,01,32,13.70
2013,07,25,01,33,13.70
2013,07,25,01,34,13.70
2013,07,25,01,35,13.60
2013,07,25,01,36,13.60
2013,07,25,01,37,13.60
2013,07,25,01,38,13.60
2013,07,25,01,39,13.60
2013,07,25,01,40,13.60
2013,07,25,01,41,13.60
2013,07,25,01,42,13.50
2013,07,25,01,43,13.50
2013,07,25,01,44,13.50
2013,07,25,01,45,13.50
2013,07,25,01,46,13.40
2013,07,25,01,47,13.40
2013,07,25,01,48,13.40
2013,07,25,01,49,13.40
2013,07,25,01,50,13.40
2013,07,25,01,51,13.40
2013,07,25,01,52,13.30
2013,07,25,01,53,13.30
2013,07,25,01,54,13.30
2013,07,25,01,55,13.30
2013,07,25,01,56,13.30
2013,07,25,01,57,13.20
2013,07,25,01,58,13.20
2013,07,25,01,59,13.20
2013,07,25,02,00,13.20
2013,07,25,02,01,13.20
2013,07,25,02,02,13.10
2013,07,25,02,03,13.10
2013,07,25,02,04,13.10
2013,07,25,02,05,13.10
2013,07,25,02,06,13.10
2013,07,25,02,07,13.10
2013,07,25,02,08,13.10
2013,07,25,02,09,13.10
2013,07,25,02,10,13.00
2013,07,25,02,11,13.00
2013,07,25,02,12,13.00
2013,07,25,02,13,12.90
2013,07,25,02,14,12.90
2013,07,25,02,15,12.90
2013,07,25,02,16,12.90
2013,07,25,02,17,12.90
2013,07,25,02,18,12.90
2013,07,25,02,19,12.90
2013,07,25,02,20,12.80
2013,07,25,02,21,12.80
2013,07,25,02,22,12.80
2013,07,25,02,23,12.80
2013,07,25,02,24,12.80
2013,07,25,02,25,12.80
2013,07,25,02,26,12.80
2013,07,25,02,27,12.80
2013,07,25,02,28,12.80
2013,07,25,02,29,12.80
2013,07,25,02,30,12.70
2013,07,25,02,31,12.70
2013,07,25,02,32,12.70
2013,07,25,02,33,12.70
2013,07,25,02,34,12.70
2013,07,25,02,35,12.70
2013,07,25,02,36,12.70
2013,07,25,02,37,12.70
2013,07,25,02,38,12.70
2013,07,25,02,39,12.70
2013,07,25,02,40,12.60
2013,07,25,02,41,12.60
2013,07,25,02,42,12.60
2013,07,25,02,43,12.60
2013,07,25,02,44,12.60
2013,07,25,02,45,12.60
2013,07,25,02,46,12.60
2013,07,25,02,47,12.60
2013,07,25,02,48,12.60
2013,07,25,02,49,12.60
2013,07,25,02,50,12.60
2013,07,25,02,51,12.50
2013,07,25,02,52,12.50
2013,07,25,02,53,12.50
2013,07,25,02,54,12.50
2013,07,25,02,55,12.50
2013,07,25,02,56,12.40
2013,07,25,02,57,12.40
2013,07,25,02,58,12.40
2013,07,25,02,59,12.40
2013,07,25,03,00,12.40
2013,07,25,03,01,12.40
2013,07,25,03,02,12.40
2013,07,25,03,03,12.40
2013,07,25,03,04,12.40
2013,07,25,03,05,12.40
2013,07,25,03,06,12.40
2013,07,25,03,07,12.40
2013,07,25,03,08,12.40
2013,07,25,03,09,12.40
2013,07,25,03,10,12.40
2013,07,25,03,11,12.30
2013,07,25,03,12,12.30
2013,07,25,03,13,12.30
2013,07,25,03,14,12.30
2013,07,25,03,15,12.30
2013,07,25,03,16,12.30
2013,07,25,03,17,12.30
2013,07,25,03,18,12.30
2013,07,25,03,19,12.30
2013,07,25,03,20,12.30
2013,07,25,03,21,12.30
2013,07,25,03,22,12.30
2013,07,25,03,23,12.30
2013,07,25,03,24,12.30
2013,07,25,03,25,12.30
2013,07,25,03,26,12.30
2013,07,25,03,27,12.30
2013,07,25,03,28,12.30
2013,07,25,03,29,12.30
2013,07,25,03,30,12.30
2013,07,25,03,31,12.20
2013,07,25,03,32,12.20
2013,07,25,03,33,12.20
2013,07,25,03,34,12.20
2013,07,25,03,35,12.20
2013,07,25,03,36,12.20
2013,07,25,03,37,12.20
2013,07,25,03,38,12.20
2013,07,25,03,39,12.20
2013,07,25,03,40,12.20
2013,07,25,03,41,12.20
2013,07,25,03,42,12.10
2013,07,25,03,43,12.10
2013,07,25,03,44,12.10
2013,07,25,03,45,12.10
2013,07,25,03,46,12.10
2013,07,25,03,47,12.10
2013,07,25,03,48,12.10
2013,07,25,03,49,12.10
2013,07,25,03,50,12.10
2013,07,25,03,51,12.10
2013,07,25,03,52,12.10
2013,07,25,03,53,12.10
2013,07,25,03,54,12.00
2013,07,25,03,55,12.00
2013,07,25,03,56,12.00
2013,07,25,03,57,12.00
2013,07,25,03,58,12.00
2013,07,25,03,59,12.00
2013,07,25,04,00,12.00
2013,07,25,04,01,11.90
2013,07,25,04,02,11.90
2013,07,25,04,03,11.90
2013,07,25,04,04,11.90
2013,07,25,04,05,11.90
2013,07,25,04,06,11.90
2013,07,25,04,07,11.90
2013,07,25,04,08,11.90
2013,07,25,04,09,11.90
2013,07,25,04,10,11.90
2013,07,25,04,11,11.90
2013,07,25,04,12,11.90
2013,07,25,04,13,11.90
2013,07,25,04,14,11.90
2013,07,25,04,15,11.90
2013,07,25,04,16,11.90
2013,07,25,04,17,11.90
2013,07,25,04,18,11.90
2013,07,25,04,19,11.90
2013,07,25,04,20,11.90
2013,07,25,04,21,11.90
2013,07,25,04,22,11.90
2013,07,25,04,23,11.90
2013,07,25,04,24,11.90
2013,07,25,04,25,11.90
2013,07,25,04,26,11.90
2013,07,25,04,27,11.90
2013,07,25,04,28,11.90
2013,07,25,04,29,11.80
2013,07,25,04,30,11.80
2013,07,25,04,31,11.80
2013,07,25,04,32,11.80
2013,07,25,04,33,11.80
2013,07,25,04,34,11.80
2013,07,25,04,35,11.80
2013,07,25,04,36,11.80
2013,07,25,04,37,11.80
2013,07,25,04,38,11.80
2013,07,25,04,39,11.70
2013,07,25,04,40,11.70
2013,07,25,04,41,11.70
2013,07,25,04,42,11.70
2013,07,25,04,43,11.70
2013,07,25,04,44,11.70
2013,07,25,04,45,11.70
2013,07,25,04,46,11.70
2013,07,25,04,47,11.70
2013,07,25,04,48,11.70
2013,07,25,04,49,11.70
2013,07,25,04,50,11.60
2013,07,25,04,51,11.60
2013,07,25,04,52,11.60
2013,07,25,04,53,11.60
2013,07,25,04,54,11.60
2013,07,25,04,55,11.60
2013,07,25,04,56,11.60
2013,07,25,04,57,11.60
2013,07,25,04,58,11.60
2013,07,25,04,59,11.60
2013,07,25,05,00,11.60
2013,07,25,05,01,11.50
2013,07,25,05,02,11.50
2013,07,25,05,03,11.50
2013,07,25,05,04,11.50
2013,07,25,05,05,11.50
2013,07,25,05,06,11.50
2013,07,25,05,07,11.50
2013,07,25,05,08,11.40
2013,07,25,05,09,11.40
2013,07,25,05,10,11.40
2013,07,25,05,11,11.40
2013,07,25,05,12,11.40
2013,07,25,05,13,11.40
2013,07,25,05,14,11.40
2013,07,25,05,15,11.40
2013,07,25,05,16,11.40
2013,07,25,05,17,11.40
2013,07,25,05,18,11.40
2013,07,25,05,19,11.40
2013,07,25,05,20,11.40
2013,07,25,05,21,11.40
2013,07,25,05,22,11.40
2013,07,25,05,23,11.30
2013,07,25,05,24,11.30
2013,07,25,05,25,11.30
2013,07,25,05,26,11.30
2013,07,25,05,27,11.30
2013,07,25,05,28,11.30
2013,07,25,05,29,11.30
2013,07,25,05,30,11.30
2013,07,25,05,31,11.30
2013,07,25,05,32,11.30
2013,07,25,05,33,11.30
2013,07,25,05,34,11.30
2013,07,25,05,35,11.30
2013,07,25,05,36,11.30
2013,07,25,05,37,11.30
2013,07,25,05,38,11.30
2013,07,25,05,39,11.20
2013,07,25,05,40,11.20
2013,07,25,05,41,11.20
2013,07,25,05,42,11.20
2013,07,25,05,43,11.20
2013,07,25,05,44,11.20
2013,07,25,05,45,11.20
2013,07,25,05,46,11.20
2013,07,25,05,47,11.20
2013,07,25,05,48,11.20
2013,07,25,05,49,11.20
2013,07,25,05,50,11.20
2013,07,25,05,51,11.20
2013,07,25,05,52,11.20
2013,07,25,05,53,11.20
2013,07,25,05,54,11.20
2013,07,25,05,55,11.20
2013,07,25,05,56,11.20
2013,07,25,05,57,11.20
2013,07,25,05,58,11.20
2013,07,25,05,59,11.20
2013,07,25,06,00,11.10
2013,07,25,06,01,11.10
2013,07,25,06,02,11.10
2013,07,25,06,03,11.10
2013,07,25,06,04,11.10
2013,07,25,06,05,11.10
2013,07,25,06,06,11.10
2013,07,25,06,07,11.10
2013,07,25,06,08,11.10
2013,07,25,06,09,11.10
2013,07,25,06,10,11.10
2013,07,25,06,11,11.10
2013,07,25,06,12,11.10
2013,07,25,06,13,11.10
2013,07,25,06,14,11.10
2013,07,25,06,15,11.10
2013,07,25,06,16,11.10
2013,07,25,06,17,11.10
2013,07,25,06,18,11.10
2013,07,25,06,19,11.10
2013,07,25,06,20,11.10
2013,07,25,06,21,11.10
2013,07,25,06,22,11.10
2013,07,25,06,23,11.10
2013,07,25,06,24,11.10
2013,07,25,06,25,11.10
2013,07,25,06,26,11.10
2013,07,25,06,27,11.10
2013,07,25,06,28,11.20
2013,07,25,06,29,11.20
2013,07,25,06,30,11.20
2013,07,25,06,31,11.20
2013,07,25,06,32,11.20
2013,07,25,06,33,11.20
2013,07,25,06,34,11.20
2013,07,25,06,35,11.30
2013,07,25,06,36,11.30
2013,07,25,06,37,11.30
2013,07,25,06,38,11.30
2013,07,25,06,39,11.30
2013,07,25,06,40,11.30
2013,07,25,06,41,11.30
2013,07,25,06,42,11.40
2013,07,25,06,43,11.40
2013,07,25,06,44,11.40
2013,07,25,06,45,11.40
2013,07,25,06,46,11.40
2013,07,25,06,47,11.50
2013,07,25,06,48,11.50
2013,07,25,06,49,11.50
2013,07,25,06,50,11.60
2013,07,25,06,51,11.60
2013,07,25,06,52,11.70
2013,07,25,06,53,11.70
2013,07,25,06,54,11.80
2013,07,25,06,55,11.80
2013,07,25,06,56,11.80
2013,07,25,06,57,11.80
2013,07,25,06,58,11.80
2013,07,25,06,59,11.90
2013,07,25,07,00,11.90
2013,07,25,07,01,11.90
2013,07,25,07,02,11.90
2013,07,25,07,03,12.00
2013,07,25,07,04,12.10
2013,07,25,07,05,12.10
2013,07,25,07,06,12.20
2013,07,25,07,07,12.20
2013,07,25,07,08,12.20
2013,07,25,07,09,12.20
2013,07,25,07,10,12.30
2013,07,25,07,11,12.30
2013,07,25,07,12,12.40
2013,07,25,07,13,12.40
2013,07,25,07,14,12.50
2013,07,25,07,15,12.50
2013,07,25,07,16,12.60
2013,07,25,07,17,12.70
2013,07,25,07,18,12.70
2013,07,25,07,19,12.80
2013,07,25,07,20,12.80
2013,07,25,07,21,12.90
2013,07,25,07,22,13.00
2013,07,25,07,23,13.00
2013,07,25,07,24,13.10
2013,07,25,07,25,13.10
2013,07,25,07,26,13.20
2013,07,25,07,27,13.20
2013,07,25,07,28,13.30
2013,07,25,07,29,13.40
2013,07,25,07,30,13.50
2013,07,25,07,31,13.50
2013,07,25,07,32,13.60
2013,07,25,07,33,13.70
2013,07,25,07,34,13.90
2013,07,25,07,35,14.00
2013,07,25,07,36,14.10
2013,07,25,07,37,14.20
2013,07,25,07,38,14.30
2013,07,25,07,39,14.40
2013,07,25,07,40,14.50
2013,07,25,07,41,14.60
2013,07,25,07,42,14.70
2013,07,25,07,43,14.80
2013,07,25,07,44,14.90
2013,07,25,07,45,15.00
2013,07,25,07,46,15.10
2013,07,25,07,47,15.20
2013,07,25,07,48,15.30
2013,07,25,07,49,15.40
2013,07,25,07,50,15.50
2013,07,25,07,51,15.60
2013,07,25,07,52,15.60
2013,07,25,07,53,15.70
2013,07,25,07,54,15.80
2013,07,25,07,55,15.80
2013,07,25,07,56,15.90
2013,07,25,07,57,16.00
2013,07,25,07,58,16.00
2013,07,25,07,59,16.10
2013,07,25,08,00,16.10
2013,07,25,08,01,16.20
2013,07,25,08,02,16.20
2013,07,25,08,03,16.20
2013,07,25,08,04,16.20
2013,07,25,08,05,16.30
2013,07,25,08,06,16.30
2013,07,25,08,07,16.30
2013,07,25,08,08,16.30
2013,07,25,08,09,16.40
2013,07,25,08,10,16.50
2013,07,25,08,11,16.60
2013,07,25,08,12,16.60
2013,07,25,08,13,16.70
2013,07,25,08,14,16.80
2013,07,25,08,15,17.00
2013,07,25,08,16,17.10
2013,07,25,08,17,17.20
2013,07,25,08,18,17.30
2013,07,25,08,19,17.50
2013,07,25,08,20,17.60
2013,07,25,08,21,17.70
2013,07,25,08,22,17.80
2013,07,25,08,23,17.90
2013,07,25,08,24,18.00
2013,07,25,08,25,18.10
2013,07,25,08,26,18.20
2013,07,25,08,27,18.30
2013,07,25,08,28,18.40
2013,07,25,08,29,18.40
2013,07,25,08,30,18.50
2013,07,25,08,31,18.50
2013,07,25,08,32,18.60
2013,07,25,08,33,18.60
2013,07,25,08,34,18.60
2013,07,25,08,35,18.70
2013,07,25,08,36,18.70
2013,07,25,08,37,18.70
2013,07,25,08,38,18.70
2013,07,25,08,39,18.70
2013,07,25,08,40,18.70
2013,07,25,08,41,18.70
2013,07,25,08,42,18.70
2013,07,25,08,43,18.70
2013,07,25,08,44,18.70
2013,07,25,08,45,18.70
2013,07,25,08,46,18.70
2013,07,25,08,47,18.70
2013,07,25,08,48,18.70
2013,07,25,08,49,18.70
2013,07,25,08,50,18.70
2013,07,25,08,51,18.70
2013,07,25,08,52,18.70
2013,07,25,08,53,18.70
2013,07,25,08,54,18.80
2013,07,25,08,55,18.80
2013,07,25,08,56,18.80
2013,07,25,08,57,18.80
2013,07,25,08,58,18.90
2013,07,25,08,59,18.90
2013,07,25,09,00,19.00
2013,07,25,09,01,19.10
2013,07,25,09,02,19.20
2013,07,25,09,03,19.20
2013,07,25,09,04,19.30
2013,07,25,09,05,19.30
2013,07,25,09,06,19.40
2013,07,25,09,07,19.40
2013,07,25,09,08,19.50
2013,07,25,09,09,19.50
2013,07,25,09,10,19.60
2013,07,25,09,11,19.60
2013,07,25,09,12,19.70
2013,07,25,09,13,19.80
2013,07,25,09,14,19.90
2013,07,25,09,15,20.00
2013,07,25,09,16,20.10
2013,07,25,09,17,20.20
2013,07,25,09,18,20.30
2013,07,25,09,19,20.30
2013,07,25,09,20,20.40
2013,07,25,09,21,20.50
2013,07,25,09,22,20.60
2013,07,25,09,23,20.70
2013,07,25,09,24,20.80
2013,07,25,09,25,20.90
2013,07,25,09,26,20.90
2013,07,25,09,27,21.00
2013,07,25,09,28,21.10
2013,07,25,09,29,21.10
2013,07,25,09,30,21.20
2013,07,25,09,31,21.20
2013,07,25,09,32,21.20
2013,07,25,09,33,21.30
2013,07,25,09,34,21.30
2013,07,25,09,35,21.40
2013,07,25,09,36,21.40
2013,07,25,09,37,21.40
2013,07,25,09,38,21.40
2013,07,25,09,39,21.40
2013,07,25,09,40,21.50
2013,07,25,09,41,21.50
2013,07,25,09,42,21.50
2013,07,25,09,43,21.60
2013,07,25,09,44,21.60
2013,07,25,09,45,21.70
2013,07,25,09,46,21.70
2013,07,25,09,47,21.80
2013,07,25,09,48,21.80
2013,07,25,09,49,21.80
2013,07,25,09,50,21.90
2013,07,25,09,51,21.90
2013,07,25,09,52,22.00
2013,07,25,09,53,22.00
2013,07,25,09,54,22.10
2013,07,25,09,55,22.10
2013,07,25,09,56,22.20
2013,07,25,09,57,22.20
2013,07,25,09,58,22.30
2013,07,25,09,59,22.30
2013,07,25,10,00,22.30
2013,07,25,10,01,22.40
2013,07,25,10,02,22.40
2013,07,25,10,03,22.40
2013,07,25,10,04,22.40
2013,07,25,10,05,22.40
2013,07,25,10,06,22.50
2013,07,25,10,07,22.50
2013,07,25,10,08,22.40
2013,07,25,10,09,22.40
2013,07,25,10,10,22.30
2013,07,25,10,11,22.30
2013,07,25,10,12,22.30
2013,07,25,10,13,22.40
2013,07,25,10,14,22.40
2013,07,25,10,15,22.50
2013,07,25,10,16,22.60
2013,07,25,10,17,22.60
2013,07,25,10,18,22.70
2013,07,25,10,19,22.80
2013,07,25,10,20,22.80
2013,07,25,10,21,22.90
2013,07,25,10,22,22.90
2013,07,25,10,23,23.00
2013,07,25,10,24,23.00
2013,07,25,10,25,23.10
2013,07,25,10,26,23.10
2013,07,25,10,27,23.10
2013,07,25,10,28,23.10
2013,07,25,10,29,23.10
2013,07,25,10,30,23.20
2013,07,25,10,31,23.20
2013,07,25,10,32,23.20
2013,07,25,10,33,23.30
2013,07,25,10,34,23.30
2013,07,25,10,35,23.30
2013,07,25,10,36,23.40
2013,07,25,10,37,23.30
2013,07,25,10,38,23.30
2013,07,25,10,39,23.30
2013,07,25,10,40,23.30
2013,07,25,10,41,23.30
2013,07,25,10,42,23.30
2013,07,25,10,43,23.30
2013,07,25,10,44,23.30
2013,07,25,10,45,23.40
2013,07,25,10,46,23.40
2013,07,25,10,47,23.40
2013,07,25,10,48,23.40
2013,07,25,10,49,23.40
2013,07,25,10,50,23.40
2013,07,25,10,51,23.40
2013,07,25,10,52,23.40
2013,07,25,10,53,23.40
2013,07,25,10,54,23.40
2013,07,25,10,55,23.40
2013,07,25,10,56,23.40
2013,07,25,10,57,23.50
2013,07,25,10,58,23.50
2013,07,25,10,59,23.50
2013,07,25,11,00,23.60
2013,07,25,11,01,23.60
2013,07,25,11,02,23.70
2013,07,25,11,03,23.70
2013,07,25,11,04,23.70
2013,07,25,11,05,23.80
2013,07,25,11,06,23.80
2013,07,25,11,07,23.80
2013,07,25,11,08,23.90
2013,07,25,11,09,23.90
2013,07,25,11,10,24.00
2013,07,25,11,11,24.00
2013,07,25,11,12,24.10
2013,07,25,11,13,24.10
2013,07,25,11,14,24.20
2013,07,25,11,15,24.20
2013,07,25,11,16,24.20
2013,07,25,11,17,24.30
2013,07,25,11,18,24.30
2013,07,25,11,19,24.30
2013,07,25,11,20,24.30
2013,07,25,11,21,24.30
2013,07,25,11,22,24.30
2013,07,25,11,23,24.30
2013,07,25,11,24,24.30
2013,07,25,11,25,24.40
2013,07,25,11,26,24.40
2013,07,25,11,27,24.50
2013,07,25,11,28,24.60
2013,07,25,11,29,24.60
2013,07,25,11,30,24.70
2013,07,25,11,31,24.70
2013,07,25,11,32,24.70
2013,07,25,11,33,24.80
2013,07,25,11,34,24.80
2013,07,25,11,35,24.80
2013,07,25,11,36,24.90
2013,07,25,11,37,24.90
2013,07,25,11,38,24.90
2013,07,25,11,39,24.90
2013,07,25,11,40,24.90
2013,07,25,11,41,24.90
2013,07,25,11,42,25.00
2013,07,25,11,43,25.00
2013,07,25,11,44,25.00
2013,07,25,11,45,24.90
2013,07,25,11,46,24.90
2013,07,25,11,47,24.90
2013,07,25,11,48,24.90
2013,07,25,11,49,24.90
2013,07,25,11,50,24.90
2013,07,25,11,51,24.90
2013,07,25,11,52,24.90
2013,07,25,11,53,24.90
2013,07,25,11,54,24.90
2013,07,25,11,55,24.90
2013,07,25,11,56,24.90
2013,07,25,11,57,24.90
2013,07,25,11,58,24.90
2013,07,25,11,59,24.90
2013,07,25,12,00,24.90
2013,07,25,12,01,24.80
2013,07,25,12,02,24.80
2013,07,25,12,03,24.80
2013,07,25,12,04,24.80
2013,07,25,12,05,24.80
2013,07,25,12,06,24.70
2013,07,25,12,07,24.70
2013,07,25,12,08,24.70
2013,07,25,12,09,24.70
2013,07,25,12,10,24.60
2013,07,25,12,11,24.60
2013,07,25,12,12,24.70
2013,07,25,12,13,24.70
2013,07,25,12,14,24.70
2013,07,25,12,15,24.70
2013,07,25,12,16,24.70
2013,07,25,12,17,24.70
2013,07,25,12,18,24.80
2013,07,25,12,19,24.70
2013,07,25,12,20,24.70
2013,07,25,12,21,24.70
2013,07,25,12,22,24.70
2013,07,25,12,23,24.60
2013,07,25,12,24,24.50
2013,07,25,12,25,24.50
2013,07,25,12,26,24.40
2013,07,25,12,27,24.30
2013,07,25,12,28,24.30
2013,07,25,12,29,24.30
2013,07,25,12,30,24.20
2013,07,25,12,31,24.20
2013,07,25,12,32,24.10
2013,07,25,12,33,24.10
2013,07,25,12,34,24.10
2013,07,25,12,35,24.10
2013,07,25,12,36,24.10
2013,07,25,12,37,24.10
2013,07,25,12,38,24.10
2013,07,25,12,39,24.10
2013,07,25,12,40,24.10
2013,07,25,12,41,24.10
2013,07,25,12,42,24.00
2013,07,25,12,43,24.00
2013,07,25,12,44,23.90
2013,07,25,12,45,23.80
2013,07,25,12,46,23.80
2013,07,25,12,47,23.70
2013,07,25,12,48,23.70
2013,07,25,12,49,23.70
2013,07,25,12,50,23.70
2013,07,25,12,51,23.70
2013,07,25,12,52,23.70
2013,07,25,12,53,23.80
2013,07,25,12,54,23.80
2013,07,25,12,55,23.80
2013,07,25,12,56,23.80
2013,07,25,12,57,23.80
2013,07,25,12,58,23.80
2013,07,25,12,59,23.90
2013,07,25,13,00,23.90
2013,07,25,13,01,23.90
2013,07,25,13,02,24.00
2013,07,25,13,03,23.90
2013,07,25,13,04,23.90
2013,07,25,13,05,23.80
2013,07,25,13,06,23.80
2013,07,25,13,07,23.80
2013,07,25,13,08,23.80
2013,07,25,13,09,23.80
2013,07,25,13,10,23.80
2013,07,25,13,11,23.80
2013,07,25,13,12,23.80
2013,07,25,13,13,23.90
2013,07,25,13,14,23.90
2013,07,25,13,15,23.90
2013,07,25,13,16,23.90
2013,07,25,13,17,23.90
2013,07,25,13,18,23.90
2013,07,25,13,19,23.90
2013,07,25,13,20,23.90
2013,07,25,13,21,23.80
2013,07,25,13,22,23.80
2013,07,25,13,23,23.80
2013,07,25,13,24,23.90
2013,07,25,13,25,23.90
2013,07,25,13,26,23.90
2013,07,25,13,27,23.90
2013,07,25,13,28,23.90
2013,07,25,13,29,24.00
2013,07,25,13,30,24.00
2013,07,25,13,31,24.00
2013,07,25,13,32,24.10
2013,07,25,13,33,24.10
2013,07,25,13,34,24.10
2013,07,25,13,35,24.10
2013,07,25,13,36,24.10
2013,07,25,13,37,24.10
2013,07,25,13,38,24.10
2013,07,25,13,39,24.20
2013,07,25,13,40,24.20
2013,07,25,13,41,24.30
2013,07,25,13,42,24.30
2013,07,25,13,43,24.30
2013,07,25,13,44,24.40
2013,07,25,13,45,24.40
2013,07,25,13,46,24.40
2013,07,25,13,47,24.40
2013,07,25,13,48,24.50
2013,07,25,13,49,24.60
2013,07,25,13,50,24.60
2013,07,25,13,51,24.60
2013,07,25,13,52,24.50
2013,07,25,13,53,24.40
2013,07,25,13,54,24.30
2013,07,25,13,55,24.30
2013,07,25,13,56,24.10
2013,07,25,13,57,24.10
2013,07,25,13,58,24.00
2013,07,25,13,59,23.90
2013,07,25,14,00,23.80
2013,07,25,14,01,23.70
2013,07,25,14,02,23.70
2013,07,25,14,03,23.60
2013,07,25,14,04,23.60
2013,07,25,14,05,23.70
2013,07,25,14,06,23.70
2013,07,25,14,07,23.70
2013,07,25,14,08,23.70
2013,07,25,14,09,23.70
2013,07,25,14,10,23.70
2013,07,25,14,11,23.80
2013,07,25,14,12,23.80
2013,07,25,14,13,23.80
2013,07,25,14,14,23.90
2013,07,25,14,15,23.90
2013,07,25,14,16,24.00
2013,07,25,14,17,23.90
2013,07,25,14,18,23.90
2013,07,25,14,19,23.80
2013,07,25,14,20,23.70
2013,07,25,14,21,23.60
2013,07,25,14,22,23.50
2013,07,25,14,23,23.40
2013,07,25,14,24,23.30
2013,07,25,14,25,23.30
2013,07,25,14,26,23.30
2013,07,25,14,27,23.30
2013,07,25,14,28,23.30
2013,07,25,14,29,23.30
2013,07,25,14,30,23.40
2013,07,25,14,31,23.40
2013,07,25,14,32,23.40
2013,07,25,14,33,23.40
2013,07,25,14,34,23.40
2013,07,25,14,35,23.40
2013,07,25,14,36,23.40
2013,07,25,14,37,23.50
2013,07,25,14,38,23.60
2013,07,25,14,39,23.60
2013,07,25,14,40,23.60
2013,07,25,14,41,23.60
2013,07,25,14,42,23.60
2013,07,25,14,43,23.60
2013,07,25,14,44,23.70
2013,07,25,14,45,23.70
2013,07,25,14,46,23.70
2013,07,25,14,47,23.70
2013,07,25,14,48,23.70
2013,07,25,14,49,23.60
2013,07,25,14,50,23.50
2013,07,25,14,51,23.40
2013,07,25,14,52,23.30
2013,07,25,14,53,23.20
2013,07,25,14,54,23.10
2013,07,25,14,55,23.00
2013,07,25,14,56,23.00
2013,07,25,14,57,22.90
2013,07,25,14,58,22.90
2013,07,25,14,59,22.80
2013,07,25,15,00,22.60
2013,07,25,15,01,22.50
2013,07,25,15,02,22.40
2013,07,25,15,03,22.30
2013,07,25,15,04,22.20
2013,07,25,15,05,22.10
2013,07,25,15,06,22.00
2013,07,25,15,07,21.80
2013,07,25,15,08,21.70
2013,07,25,15,09,21.50
2013,07,25,15,10,21.40
2013,07,25,15,11,21.30
2013,07,25,15,12,21.20
2013,07,25,15,13,21.20
2013,07,25,15,14,21.20
2013,07,25,15,15,21.20
2013,07,25,15,16,21.10
2013,07,25,15,17,21.10
2013,07,25,15,18,21.10
2013,07,25,15,19,21.10
2013,07,25,15,20,21.10
2013,07,25,15,21,21.10
2013,07,25,15,22,21.10
2013,07,25,15,23,21.20
2013,07,25,15,24,21.20
2013,07,25,15,25,21.30
2013,07,25,15,26,21.30
2013,07,25,15,27,21.40
2013,07,25,15,28,21.50
2013,07,25,15,29,21.50
2013,07,25,15,30,21.60
2013,07,25,15,31,21.70
2013,07,25,15,32,21.70
2013,07,25,15,33,21.80
2013,07,25,15,34,21.80
2013,07,25,15,35,21.80
2013,07,25,15,36,21.90
2013,07,25,15,37,21.90
2013,07,25,15,38,22.00
2013,07,25,15,39,22.00
2013,07,25,15,40,22.10
2013,07,25,15,41,22.10
2013,07,25,15,42,22.10
2013,07,25,15,43,22.20
2013,07,25,15,44,22.20
2013,07,25,15,45,22.10
2013,07,25,15,46,22.10
2013,07,25,15,47,22.10
2013,07,25,15,48,22.20
2013,07,25,15,49,22.20
2013,07,25,15,50,22.20
2013,07,25,15,51,22.20
2013,07,25,15,52,22.30
2013,07,25,15,53,22.20
2013,07,25,15,54,22.20
2013,07,25,15,55,22.20
2013,07,25,15,56,22.10
2013,07,25,15,57,22.10
2013,07,25,15,58,22.10
2013,07,25,15,59,22.00
2013,07,25,16,00,22.00
2013,07,25,16,01,22.00
2013,07,25,16,02,21.90
2013,07,25,16,03,21.90
2013,07,25,16,04,21.90
2013,07,25,16,05,21.90
2013,07,25,16,06,21.90
2013,07,25,16,07,21.90
2013,07,25,16,08,22.00
2013,07,25,16,09,22.10
2013,07,25,16,10,22.10
2013,07,25,16,11,22.20
2013,07,25,16,12,22.20
2013,07,25,16,13,22.20
2013,07,25,16,14,22.30
2013,07,25,16,15,22.30
2013,07,25,16,16,22.30
2013,07,25,16,17,22.30
2013,07,25,16,18,22.30
2013,07,25,16,19,22.40
2013,07,25,16,20,22.40
2013,07,25,16,21,22.40
2013,07,25,16,22,22.50
2013,07,25,16,23,22.50
2013,07,25,16,24,22.60
2013,07,25,16,25,22.60
2013,07,25,16,26,22.60
2013,07,25,16,27,22.70
2013,07,25,16,28,22.70
2013,07,25,16,29,22.80
2013,07,25,16,30,22.80
2013,07,25,16,31,22.80
2013,07,25,16,32,22.80
2013,07,25,16,33,22.80
2013,07,25,16,34,22.90
2013,07,25,16,35,22.90
2013,07,25,16,36,22.90
2013,07,25,16,37,23.00
2013,07,25,16,38,23.00
2013,07,25,16,39,23.00
2013,07,25,16,40,23.00
2013,07,25,16,41,22.90
2013,07,25,16,42,22.90
2013,07,25,16,43,22.90
2013,07,25,16,44,22.80
2013,07,25,16,45,22.80
2013,07,25,16,46,22.80
2013,07,25,16,47,22.80
2013,07,25,16,48,22.80
2013,07,25,16,49,22.80
2013,07,25,16,50,22.80
2013,07,25,16,51,22.80
2013,07,25,16,52,22.70
2013,07,25,16,53,22.70
2013,07,25,16,54,22.70
2013,07,25,16,55,22.70
2013,07,25,16,56,22.70
2013,07,25,16,57,22.80
2013,07,25,16,58,22.80
2013,07,25,16,59,22.80
2013,07,25,17,00,22.80
2013,07,25,17,01,22.80
2013,07,25,17,02,22.80
2013,07,25,17,03,22.90
2013,07,25,17,04,22.90
2013,07,25,17,05,22.90
2013,07,25,17,06,23.00
2013,07,25,17,07,23.00
2013,07,25,17,08,23.10
2013,07,25,17,09,23.20
2013,07,25,17,10,23.20
2013,07,25,17,11,23.30
2013,07,25,17,12,23.30
2013,07,25,17,13,23.40
2013,07,25,17,14,23.40
2013,07,25,17,15,23.40
2013,07,25,17,16,23.50
2013,07,25,17,17,23.50
2013,07,25,17,18,23.50
2013,07,25,17,19,23.60